Content
SEND FEEDBACK

Daily
Averages
Monthly
Summary
United Kingdom

BEDFORD, ENGLAND


Home > Europe > United Kingdom > England
Elevation: 293 feet     Latitude: 52 13N     Longitude: 000 29W

WEATHER
 
SELECT A DAY
Number of Records: 73,925;   Date Range: 7/1/96 - 10/21/14
 
SHARE

PRINT THIS DATA

[ ← Previous Day ]
WEATHER ALMANAC - NOVEMBER 1, 2013
[ Next Day → ]
[ °C ]   °F
Weather ElementAverageHighLow
Temperature54.1 °F57.2 °F (2:20 pm)50 °F (8:20 am)
Dewpoint52.5 °F53.6 °F (1:20 pm)50 °F (8:20 am)
Humidity94.6 %100 % (8:20 am)88 % (11:20 am)
Barometer29.75 in29.86 in (8:20 am)29.65 in (5:20 pm)
Wind Speed10.6 mph12.7 mph (1:50 pm)
Weather ElementAverage
Visibility6.2 mi
Wind DirectionSSW (196 °)

Weather ElementTotal
Precipitation---
Heating Degree Days11.4 (Base 65)
Growing Degree Days3.6 (Base 50)
Averaged from 20 records on November 1, 2013
WEATHER CONDITIONS BREAKOUT
WIND DIRECTION BREAKOUT
WEATHER BY HOUR - NOVEMBER 1, 2013
[ °C ]   °F
Local TimeTemperatureDewpointHumidityBarometerVisibilityWind DirectionWind SpeedGust SpeedPrecipitationEventsConditions
8:20 AM50.0 °F50.0 °F100 %29.86 inSSW (200°)6.9 mphClear
8:50 AM50.0 °F50.0 °F100 %29.86 inSSW (210°)8.1 mphClear
9:20 AM51.8 °F51.8 °F100 %29.83 inSSW (210°)8.1 mphClear
9:50 AM51.8 °F51.8 °F100 %29.83 inSSW (200°)10.4 mphClear
10:20 AM53.6 °F51.8 °F94 %29.83 inSouth (190°)9.2 mphClear
10:50 AM53.6 °F51.8 °F94 %29.80 in6.2 miSSW (200°)11.5 mphPartly Cloudy
11:20 AM55.4 °F51.8 °F88 %29.80 in6.2 miSouth (190°)11.5 mphRainLight Rain
11:50 AM55.4 °F51.8 °F88 %29.77 in6.2 miSouth (190°)11.5 mphPartly Cloudy
12:20 PM55.4 °F51.8 °F88 %29.77 in6.2 miSouth (190°)11.5 mphMostly Cloudy
12:50 PM55.4 °F51.8 °F88 %29.77 in6.2 miSouth (190°)10.4 mphRainLight Rain
1:20 PM55.4 °F53.6 °F94 %29.74 in6.2 miSouth (180°)10.4 mphMostly Cloudy
1:50 PM55.4 °F53.6 °F94 %29.71 in6.2 miSSW (200°)12.7 mphScattered Clouds
2:20 PM57.2 °F53.6 °F88 %29.71 in6.2 miSSW (200°)12.7 mphMostly Cloudy
2:50 PM57.2 °F53.6 °F88 %29.71 in6.2 miSSW (210°)10.4 mphMostly Cloudy
3:20 PM55.4 °F53.6 °F94 %29.68 in6.2 miSSW (210°)11.5 mphScattered Clouds
3:50 PM55.4 °F53.6 °F94 %29.68 in6.2 miSSW (200°)12.7 mphScattered Clouds
4:20 PM53.6 °F53.6 °F100 %29.68 in6.2 miSSW (200°)10.4 mphScattered Clouds
4:50 PM53.6 °F53.6 °F100 %29.68 in6.2 miSSW (200°)12.7 mphRainLight Rain Showers
5:20 PM53.6 °F53.6 °F100 %29.65 in6.2 miSouth (170°)10.4 mphRainLight Rain Showers
5:50 PM53.6 °F53.6 °F100 %29.65 in6.2 miSouth (180°)8.1 mphScattered Clouds
Hourly data recorded from EGTC, located miles away from Bedford, England







STORIES FROM OUR PARTNERS